EA3KZ-1 Weather Reports


time (UTC)temp
C
wind
direction
speed
KPH
gust
KPH
rain 1hr
cm
rain 24hr
cm
rain mn
cm
humidity
%
barometer
mb
20260906061530 26 119 1.6 3.2 0.00 0.00 0.00 51 1017.1
20260906060527 25 43 3.2 6.4 0.00 0.00 0.00 51 1017.1
20260906055525 25 68 0.0 3.2 0.00 0.00 0.00 51 1016.9
20260906054522 25 0.0 3.2 0.00 0.00 0.00 51 1016.9
20260906053520 24 106 0.0 3.2 0.00 0.00 0.00 52 1016.9
20260906052517 24 0.0 0.0 0.00 0.00 0.00 53 1016.9
20260906051515 24 0.0 3.2 0.00 0.00 0.00 51 1016.9
20260906050612 24 113 0.0 3.2 0.00 0.00 0.00 48 1016.8
20260906045609 25 180 0.0 3.2 0.00 0.00 0.00 48 1016.8
20260906044607 25 90 0.0 3.2 0.00 0.00 0.00 46 1016.8
20260906043604 25 237 3.2 6.4 0.00 0.00 0.00 45 1016.9
20260906042602 23 248 0.0 3.2 0.00 0.00 0.00 52 1016.9
20260906041559 23 248 0.0 3.2 0.00 0.00 0.00 52 1017.1
20260906040556 23 240 3.2 3.2 0.00 0.00 0.00 52 1017.1
20260906035554 24 173 1.6 3.2 0.00 0.00 0.00 51 1017.1
20260906034551 24 184 1.6 3.2 0.00 0.00 0.00 48 1017.2
20260906033549 24 227 1.6 6.4 0.00 0.00 0.00 48 1017.2
20260906032546 24 236 1.6 3.2 0.00 0.00 0.00 52 1017.4
20260906031544 23 193 3.2 3.2 0.00 0.00 0.00 53 1017.3
20260906030541 24 131 1.6 6.4 0.00 0.00 0.00 48 1017.3
20260906025538 25 215 1.6 3.2 0.00 0.00 0.00 44 1017.3
20260906024536 26 0.0 0.0 0.00 0.00 0.00 40 1017.3
20260906023533 26 241 3.2 6.4 0.00 0.00 0.00 42 1017.5
20260906022530 25 248 0.0 3.2 0.00 0.00 0.00 45 1017.4
20260906021528 26 245 4.8 6.4 0.00 0.00 0.00 42 1017.5
20260906020525 25 233 4.8 6.4 0.00 0.00 0.00 47 1017.4
20260906015523 25 225 6.4 9.7 0.00 0.00 0.00 49 1017.6
20260906014520 25 229 3.2 3.2 0.00 0.00 0.00 46 1017.6
20260906013517 25 133 1.6 3.2 0.00 0.00 0.00 46 1017.7
20260906012515 25 97 1.6 3.2 0.00 0.00 0.00 45 1017.6
20260906011613 26 270 0.0 3.2 0.00 0.00 0.00 41 1017.6
20260906010610 25 243 1.6 3.2 0.00 0.00 0.00 45 1017.7
20260906005607 25 235 3.2 6.4 0.00 0.00 0.00 45 1017.8
20260906004605 25 220 0.0 3.2 0.00 0.00 0.00 46 1017.9
20260906003602 25 237 0.0 3.2 0.00 0.00 0.00 46 1017.9
20260906002600 25 228 3.2 6.4 0.00 0.00 0.00 47 1018.0
20260906001557 25 231 1.6 3.2 0.00 0.00 0.00 52 1018.2
20260906000554 25 203 1.6 3.2 0.00 0.00 0.00 54 1018.3
20260905235552 25 225 1.6 3.2 0.00 0.00 0.00 54 1018.3
20260905234550 25 0.0 0.0 0.00 0.00 0.00 54 1018.4
20260905233547 25 248 0.0 3.2 0.00 0.00 0.00 53 1018.3
20260905232544 25 241 1.6 3.2 0.00 0.00 0.00 54 1018.4
20260905231541 24 234 4.8 9.7 0.00 0.00 0.00 55 1018.5
20260905230539 25 212 1.6 3.2 0.00 0.00 0.00 56 1018.8
20260905225536 25 0.0 0.0 0.00 0.00 0.00 55 1018.7
20260905224534 25 227 1.6 3.2 0.00 0.00 0.00 55 1018.7
20260905223531 25 180 0.0 3.2 0.00 0.00 0.00 57 1018.7
20260905222528 26 218 0.0 3.2 0.00 0.00 0.00 56 1018.8
20260905221526 26 233 4.8 6.4 0.00 0.00 0.00 56 1018.7
20260905220523 26 224 3.2 6.4 0.00 0.00 0.00 56 1018.6
20260905215521 26 233 3.2 6.4 0.00 0.00 0.00 56 1018.7
20260905214518 26 210 1.6 3.2 0.00 0.00 0.00 56 1018.8
20260905213515 26 225 3.2 6.4 0.00 0.00 0.00 55 1018.9
20260905212613 26 244 3.2 6.4 0.00 0.00 0.00 56 1019.0
20260905211611 26 0.0 0.0 0.00 0.00 0.00 60 1019.0
20260905210608 26 211 1.6 3.2 0.00 0.00 0.00 61 1018.9
20260905205605 26 0.0 0.0 0.00 0.00 0.00 62 1019.1
20260905204603 26 180 0.0 3.2 0.00 0.00 0.00 64 1019.1
20260905203600 26 211 3.2 6.4 0.00 0.00 0.00 62 1019.1
20260905202557 26 269 3.2 3.2 0.00 0.00 0.00 62 1019.1
20260905201555 27 312 1.6 3.2 0.00 0.00 0.00 62 1019.1
20260905200552 26 294 3.2 6.4 0.00 0.00 0.00 63 1019.0
20260905195550 26 303 4.8 6.4 0.00 0.00 0.00 65 1018.9
20260905194548 26 305 3.2 9.7 0.00 0.00 0.00 73 1019.0
20260905193545 26 309 4.8 9.7 0.00 0.00 0.00 75 1019.0
20260905192542 27 312 3.2 6.4 0.00 0.00 0.00 75 1019.0
20260905191539 27 340 3.2 6.4 0.00 0.00 0.00 74 1018.9
20260905190537 27 344 1.6 6.4 0.00 0.00 0.00 73 1018.8
20260905185534 27 313 4.8 11.3 0.00 0.00 0.00 74 1018.8
20260905184532 27 336 4.8 11.3 0.00 0.00 0.00 72 1018.8
20260905183529 27 346 4.8 9.7 0.00 0.00 0.00 72 1018.7
20260905182526 27 19 6.4 11.3 0.00 0.00 0.00 71 1018.8
20260905181524 28 333 4.8 9.7 0.00 0.00 0.00 69 1018.6
20260905180521 28 341 4.8 9.7 0.00 0.00 0.00 66 1018.5
20260905175519 28 22 6.4 11.3 0.00 0.00 0.00 65 1018.5
20260905174516 29 3 4.8 9.7 0.00 0.00 0.00 63 1018.5
20260905173614 29 360 4.8 9.7 0.00 0.00 0.00 58 1018.5
20260905172611 29 345 8.0 12.9 0.00 0.00 0.00 56 1018.5
20260905171609 30 17 8.0 12.9 0.00 0.00 0.00 55 1018.4
20260905170606 30 42 4.8 11.3 0.00 0.00 0.00 54 1018.6
20260905165603 30 20 8.0 14.5 0.00 0.00 0.00 52 1018.4
20260905164601 30 353 6.4 14.5 0.00 0.00 0.00 51 1018.3
20260905163558 30 337 8.0 12.9 0.00 0.00 0.00 50 1018.3
20260905162555 30 335 9.7 17.7 0.00 0.00 0.00 50 1018.3
20260905161553 30 21 8.0 17.7 0.00 0.00 0.00 48 1018.4
20260905160550 31 5 9.7 17.7 0.00 0.00 0.00 45 1018.4
20260905155548 31 16 8.0 17.7 0.00 0.00 0.00 43 1018.5
20260905154545 31 71 9.7 24.1 0.00 0.00 0.00 42 1018.5
20260905153543 31 38 9.7 22.5 0.00 0.00 0.00 42 1018.3
20260905152540 31 52 8.0 17.7 0.00 0.00 0.00 41 1018.4
20260905151537 31 23 9.7 20.9 0.00 0.00 0.00 42 1018.5
20260905150535 31 319 9.7 20.9 0.00 0.00 0.00 42 1018.6
20260905145532 32 52 9.7 17.7 0.00 0.00 0.00 40 1018.5
20260905144559 33 86 6.4 17.7 0.00 0.00 0.00 38 1018.7
20260905143557 33 72 8.0 24.1 0.00 0.00 0.00 38 1018.7
20260905142554 33 22 6.4 17.7 0.00 0.00 0.00 37 1018.8
20260905141552 32 54 9.7 22.5 0.00 0.00 0.00 37 1018.8
20260905140549 33 28 8.0 17.7 0.00 0.00 0.00 37 1018.8
20260905135547 33 3 8.0 17.7 0.00 0.00 0.00 37 1018.9
20260905134544 33 33 8.0 22.5 0.00 0.00 0.00 36 1019.0
20260905133541 33 66 9.7 25.7 0.00 0.00 0.00 36 1018.8
20260905132539 33 133 6.4 22.5 0.00 0.00 0.00 35 1019.0
20260905131536 34 127 4.8 11.3 0.00 0.00 0.00 34 1019.0
20260905130534 33 15 9.7 24.1 0.00 0.00 0.00 35 1019.1
20260905125531 33 103 9.7 17.7 0.00 0.00 0.00 35 1019.1
20260905124528 33 34 11.3 17.7 0.00 0.00 0.00 36 1019.1
20260905123526 34 93 3.2 9.7 0.00 0.00 0.00 34 1019.1
20260905122523 34 26 4.8 11.3 0.00 0.00 0.00 34 1019.3
20260905121521 33 57 6.4 17.7 0.00 0.00 0.00 35 1019.4
20260905120518 33 28 9.7 17.7 0.00 0.00 0.00 35 1019.3
20260905115515 33 40 9.7 17.7 0.00 0.00 0.00 34 1019.4
20260905114613 33 64 6.4 22.5 0.00 0.00 0.00 33 1019.5
20260905113610 34 151 3.2 14.5 0.00 0.00 0.00 34 1019.5
20260905112608 33 114 6.4 17.7 0.00 0.00 0.00 35 1019.5
20260905111605 33 33 6.4 14.5 0.00 0.00 0.00 36 1019.5
20260905110603 33 93 4.8 14.5 0.00 0.00 0.00 36 1019.4
20260905105600 33 131 4.8 20.9 0.00 0.00 0.00 35 1019.4
20260905104557 33 336 6.4 14.5 0.00 0.00 0.00 38 1019.3
20260905103555 33 163 6.4 17.7 0.00 0.00 0.00 39 1019.4
20260905102552 32 15 8.0 17.7 0.00 0.00 0.00 39 1019.5
20260905101550 33 1 6.4 14.5 0.00 0.00 0.00 38 1019.5
20260905100548 32 28 9.7 17.7 0.00 0.00 0.00 39 1019.4
20260905095544 32 56 6.4 12.9 0.00 0.00 0.00 38 1019.5
20260905094542 32 43 6.4 14.5 0.00 0.00 0.00 38 1019.4
20260905093539 32 346 6.4 11.3 0.00 0.00 0.00 39 1019.3
20260905092537 32 14 8.0 17.7 0.00 0.00 0.00 38 1019.4
20260905091534 32 41 6.4 14.5 0.00 0.00 0.00 38 1019.2
20260905090531 31 54 9.7 17.7 0.00 0.00 0.00 39 1019.1
20260905085529 32 57 8.0 14.5 0.00 0.00 0.00 38 1019.0
20260905084526 31 21 11.3 17.7 0.00 0.00 0.00 38 1018.9
20260905083524 31 13 9.7 17.7 0.00 0.00 0.00 38 1019.0
20260905082521 31 357 9.7 17.7 0.00 0.00 0.00 37 1018.7
20260905081518 31 350 11.3 17.7 0.00 0.00 0.00 37 1018.5
20260905080516 31 325 8.0 14.5 0.00 0.00 0.00 37 1018.4
20260905075613 32 335 1.6 6.4 0.00 0.00 0.00 42 1018.4
20260905074611 31 0.0 3.2 0.00 0.00 0.00 45 1018.3
20260905073608 30 0.0 3.2 0.00 0.00 0.00 46 1018.2
20260905072606 30 90 0.0 3.2 0.00 0.00 0.00 47 1018.2
20260905071603 31 0.0 3.2 0.00 0.00 0.00 43 1018.1
20260905070601 30 293 0.0 3.2 0.00 0.00 0.00 46 1018.0
20260905065558 28 296 4.8 6.4 0.00 0.00 0.00 47 1017.9
20260905064555 28 301 3.2 6.4 0.00 0.00 0.00 47 1017.8
20260905063553 28 277 0.0 3.2 0.00 0.00 0.00 48 1017.9
20260905062550 27 284 3.2 6.4 0.00 0.00 0.00 50 1017.6